Location: Unspecified
(51.0000°N, 12.0000°E)
Time: 11:28:47
(UTC+01:00)

ISS - Pass Details

Date: 12 January 2018
Orbit: 402 x 407 km, 51.6° (Epoch: 22 January)

Event Time Altitude Azimuth Distance (km) Brightness Sun altitude
Exits shadow 06:23:47 28° 234° (SW) 790 -2.7 -16.1°
Maximum altitude 06:24:25 31° 211° (SSW) 742 -2.7 -16.0°
Drops below altitude 10° 06:27:21 10° 147° (SSE) 1,463 -0.3 -15.6°
Sets 06:29:34 0° 136° (SE) 2,321 1.1 -15.2°
